MINOTAUR 4 DEB, 52037

Orbit data source: Space-Track

MINOTAUR 4 DEB, 52037 is space debris in LEO originally from a launch on Wed, 15 Jul 2020 UTC launched from the Wallops Island (WLPIS). Debris objects in space refer to the collection of defunct objects orbiting the Earth. Examples of debris include non-operational satellites, rocket bodies, and fragments generated from explosions, collisions, or faulty payload assembly.

Loading next visibility...
Identifier
52037, 2020-046AB
Orbit
LEO
Country
Flag of USUS
Related business
Manufacturer
NGIS FSG
Mission
Spacecraft
Bus & Motor
Unknown
Mass
Unknown
Launch date (UTC)
2020-07-15 (6 years ago)
Launch vehicle
Unknown
Launch site
Wallops Island (WLPIS)
Object type
Payload
Rocket body
Debris
Shape & HBR
Unknown shape, 0.1 m
Radar Cross Section
Small (<0.1 m²)

Expand to show TLE details & history
Last TLE update: 14 hours ago

TLE from 14 hours ago
0 MINOTAUR 4 DEB
1 52037U 20046AB  26133.03155136  .00000556  00000-0  58998-4 0  9997
2 52037  53.9801  35.9414 0006235 244.6508 115.3847 15.04330997236580
Epoch: 2026-05-13T00:45Z
TLE epoch observation values (Epoch: 2026-05-13T00:45:26.037Z)
Latitude
0.00001°
Longitude
153.78551°
Altitude
556.391 km
Speed
7.584 km/s
True Right ascension
02h 23m 45s
True Declination
0° 00' 00"
Sunlit
Object was in daylight at epoch
Visualization orbit readout
Latitude
Unknown
Longitude
Unknown
Altitude
Unknown
Speed
Unknown
Apparent Right ascension
Unknown
Apparent Declination
Unknown
Sunlit
N/A
Visualization observer readout
Local Sidereal Time
23:15:51
Azimuth
Unknown
Elevation
Unknown
Doppler factor
Unknown
Orbital elements
Apogee altitude
558.005 km
Perigee altitude
549.361 km
Semi-major axis
6,931.82 km
Eccentricity
0.00062
Inclination
53.9801°
RAAN
35.9414°
Arg. of periapsis
244.6508°
True anomaly
115.44923°
Mean anomaly
115.3847°
Eccentric anomaly
115.41697°
Mean motion
3.76073 °/min
Orbital period
95.73 mins
BSTAR
0.000058998
Loading maneuver chart data...
Computing Atmospheric mass density...

Documentation

Showing up to 5 results
|